RH
47 35 36 40 38 30 28 28 25 24 20 22 22 21 22 20 18 18 20 20 20 21 22 18 26 27 31 34 36 44 46 47 49 56 46 34 27 28 32 37 42 48 53 61
53 45 30 28 35 42 38 31 27 27 25 27 25 25 22 21 19 19 21 22 22 23 25 20 25 28 32 36 35 43 44 47 51 56 44 33 26 29 35 40 48 55 58 63
49 55 48 38 31 31 30 31 27 32 33 32 33 25 24 21 18 19 19 20 23 24 26 26 23 28 32 33 36 41 44 47 51 52 43 37 27 30 35 43 56 67 70 73
54 51 50 52 36 37 44 45 41 39 43 38 39 34 28 23 25 25 26 25 25 26 29 27 24 27 30 31 40 41 44 49 52 48 43 39 28 31 35 49 65 76 78 86
47 51 55 48 41 47 44 47 46 46 46 43 36 44 29 29 32 35 32 32 31 33 36 33 29 23 28 30 36 42 46 53 49 46 46 36 29 32 41 51 65 70 76 87
49 55 52 57 53 49 52 49 48 54 49 55 34 39 32 39 48 47 46 46 46 47 45 38 32 26 24 27 36 45 49 54 48 47 46 33 30 33 41 51 64 71 77 78
41 46 56 57 65 66 64 57 48 64 69 44 42 45 36 48 55 57 57 57 59 56 51 45 37 32 28 35 48 50 54 54 45 50 47 31 32 35 42 49 59 69 72 77
58 55 52 62 56 58 55 45 46 56 55 51 48 47 54 59 61 64 63 63 60 58 57 49 38 39 48 54 53 55 56 53 45 54 47 27 35 37 42 49 53 58 62 69
66 61 57 62 62 55 63 63 56 63 54 59 40 46 52 58 67 66 67 63 60 60 61 56 46 55 57 59 57 59 58 56 54 54 44 28 36 39 43 49 53 54 55 59
72 66 68 70 72 72 70 68 75 68 70 63 50 51 62 71 72 71 69 67 66 64 65 60 60 62 62 64 59 60 63 63 61 58 43 30 37 41 44 49 51 51 51 53
72 67 70 76 73 73 76 78 78 77 74 70 56 57 70 75 76 72 71 73 72 68 67 63 65 64 65 64 64 65 65 68 66 61 45 34 37 40 44 47 48 48 48 52
82 75 63 67 80 78 74 74 75 74 79 75 80 62 71 81 79 73 78 79 75 71 72 71 72 70 70 69 68 69 66 71 71 67 50 39 40 42 43 47 50 50 51 52
96 76 74 73 72 72 75 80 83 82 78 72 83 75 74 77 79 76 83 84 80 74 78 76 78 73 72 72 71 70 69 74 75 70 63 48 40 45 45 48 50 50 51 53
98 88 75 68 72 76 79 73 74 77 80 80 76 65 61 54 59 70 85 87 86 80 78 79 78 79 79 77 78 73 74 78 75 71 68 59 47 48 53 52 54 55 54 54
99 91 83 72 68 69 70 71 66 64 64 62 61 53 55 57 60 68 84 92 92 87 82 79 81 81 81 80 79 81 80 78 73 74 75 67 52 52 56 57 55 57 58 58
98 98 96 90 75 63 57 48 42 41 40 43 52 62 66 63 66 77 88 94 96 91 84 85 83 88 88 87 87 86 84 82 82 83 85 77 65 62 64 65 65 65 67 69
98 89 88 91 74 61 53 44 42 41 49 49 51 52 58 68 76 82 92 96 97 97 92 92 90 92 95 92 90 88 89 88 90 93 90 88 80 76 79 83 85 86 86 85
97 93 73 72 64 55 52 52 39 34 45 56 60 69 76 86 81 84 98 97 98 99 98 97 97 95 95 97 94 95 95 94 95 95 98 95 94 91 89 90 89 88 87 88
86 88 73 64 59 50 49 50 47 48 51 59 59 66 76 82 81 89 98 98 98 98 98 97 97 97 98 99 95 96 99 99 99 97 96 99 98 95 96 92 92 91 88 88
72 71 74 64 57 46 60 57 55 47 54 59 61 61 74 81 86 94 98 98 98 98 98 97 97 97 97 99 95 95 97 96 98 98 97 99 98 95 91 90 88 86 85 82
71 66 68 63 61 49 52 51 47 55 65 59 58 63 68 80 88 95 97 97 98 98 97 98 97 97 98 97 96 91 87 87 86 90 90 92 86 84 81 80 79 74 71 65
69 64 63 61 64 60 59 56 59 68 68 62 54 56 70 84 92 97 97 97 97 97 98 97 96 94 95 97 96 91 83 81 81 81 81 76 74 73 69 69 67 63 61 58
80 78 82 66 77 69 73 72 71 74 76 70 58 63 73 84 92 96 97 97 98 97 96 95 91 88 85 82 81 81 84 81 81 81 80 78 74 72 70 66 65 62 61 58
82 81 86 80 80 74 75 74 70 76 75 68 63 75 81 87 93 96 96 97 97 98 96 96 94 90 86 82 79 80 80 80 81 81 82 81 76 74 74 70 64 58 53 52
90 85 80 78 77 75 74 74 77 78 76 71 67 79 89 96 97 97 97 96 95 95 92 91 89 87 83 82 80 78 77 75 72 69 68 68 66 62 61 60 58 58 57 53
96 94 90 87 77 72 74 76 81 84 82 78 77 85 90 97 97 97 97 97 97 96 94 91 87 83 79 75 72 68 66 66 64 62 62 61 57 55 54 52 50 49 49 47